Preview of NWS' New Version of Forecast
This preview is not operational and should not be used for support decisions.

Regional Weather Roundup (RWR)

Issued by National Weather Service (NWS)

                            
000
ASUS44 KMEG 211410
RWRTN 
TENNESSEE HOURLY STATE WEATHER ROUNDUP
NATIONAL WEATHER SERVICE MEMPHIS TN
900 AM CDT SUN JUL 21 2019

TNZ002-004-019-021-049-052-054-088>092-211500-
WEST TENNESSEE
  
CITY           SKY/WX    TMP DP  RH WIND       PRES   REMARKS
MEMPHIS INTL   FAIR      82  77  84 SW9       30.01R HX  90           
NWS MEMPHIS      N/A     81 N/A N/A MISG        N/A                   
JACKSON        LGT RAIN  76  75  97 S5        30.03S                  
DYERSBURG      PTSUNNY   82  77  84 S5        30.00R HX  90           
SOMERVILLE     CLOUDY    77  75  94 S7        30.01R                  
COVINGTON      MOSUNNY   81  77  89 SW6       29.99S                  
UNION CITY     PTSUNNY   81  77  89 S8        29.97S                  
BOLIVAR        CLOUDY    75  73  94 SE6       30.02S                  
PARIS          CLOUDY    79  75  89 SW8       30.00S                  
HUNTINGDON     CLOUDY    79  75  89 SW8       30.01S                  
LEXINGTON      PTSUNNY   75  73  94 S8        30.02S                  
SELMER         PTSUNNY   75  73  94 VRB3      30.03S FOG              
SAVANNAH       PTSUNNY   77  75  94 CALM      30.03S                  
$$

TNZ008-025-027-028-033-062-065-066-211500-
NORTH MIDDLE TENNESSEE
  
CITY           SKY/WX    TMP DP  RH WIND       PRES   REMARKS
NASHVILLE      CLOUDY    77  72  84 SW6       30.04R                  
PORTLAND       CLOUDY    75  73  94 S7        30.02S                  
CLARKSVILLE    CLOUDY    76  75  97 SW9       30.01S                  
LEBANON        CLOUDY    77  73  88 SW6       30.02S                  
SMYRNA         CLOUDY    75  73  93 SW3       30.05R                  
MURFREESBORO   CLOUDY    77  73  88 SW9       30.03R                  
COOKEVILLE     CLOUDY    77  73  88 S6        30.06F                  
LIVINGSTON     CLOUDY    73  72  94 SW9       30.06F                  
GALLATIN       CLOUDY    75  73  94 VRB3      30.06R                  
CROSSVILLE     CLOUDY    73  69  87 SW6       30.12R                  
ROCKWOOD       CLOUDY    73  72  94 SW7       30.10S FOG              
$$

TNZ061-075-076-078-094-096-097-211500-
SOUTH MIDDLE TENNESSEE
  
CITY           SKY/WX    TMP DP  RH WIND       PRES   REMARKS
LAWRENCEBURG   CLOUDY    73  73 100 CALM      30.06R                  
LEWISBURG      CLOUDY    75  73  94 SW6       30.05R                  
FAYETTEVILLE   CLOUDY    75  73  94 S7        30.07R                  
TULLAHOMA      CLOUDY    77  72  83 SW7       30.06S                  
WINCHESTER     MOSUNNY   79  72  78 S5        30.07S                  
MCMINNVILLE    CLOUDY    77  73  88 SW7       30.07S                  
COLUMBIA       CLOUDY    75  75 100 SW8       30.03S FOG              
SHELBYVILLE    CLOUDY    77  73  88 S7        30.06R                  
$$

TNZ017-018-042-046-047-211500-
NORTHEAST TENNESSEE
  
CITY           SKY/WX    TMP DP  RH WIND       PRES   REMARKS
TRI CITIES     CLOUDY    77  71  82 SW3       30.10S                  
ELIZABETHTON   CLOUDY    79  72  78 VRB3      30.10S                  
GREENEVILLE    CLOUDY    75  72  88 W3        30.10S                  
$$

TNZ012-013-036-069-073-074-211500-
CENTRAL EAST TENNESSEE
  
CITY           SKY/WX    TMP DP  RH WIND       PRES   REMARKS
KNOXVILLE      CLOUDY    77  71  82 SW12      30.07R                  
OAK RIDGE      CLOUDY    77  72  84 VRB5      30.08                   
DOWNTOWN KNOXV CLOUDY    79  73  83 W6        30.07S                  
GATLINBURG     PTSUNNY   77  73  88 CALM      30.08R                  
MORRISTOWN     CLOUDY    77  73  88 W7        30.08S                  
JACKSBORO      CLOUDY    77  73  88 CALM      30.10F                  
$$

TNZ083-085-099-211500-
SOUTHEAST TENNESSEE
  
CITY           SKY/WX    TMP DP  RH WIND       PRES   REMARKS
CHATTANOOGA    PTSUNNY   79  71  76 CALM      30.08S                  
DAYTON         CLOUDY    79  73  83 SW5       30.07S                  
$$

SKY/WX REPORTED AS FAIR MEANS FEW OR NO CLOUDS BELOW
12 THOUSAND FEET.